User: anonymous
Location: Strohbehn Observatory
(42.4649°N, 93.8239°W)
Time: 10:19:05
(UTC-05:00)
Language:

SL-16 R/B - Orbit

View from above orbital plane
View from above orbital plane
View from above satellite
View from above satellite

Ground track
Ground track

The orbit data is extracted from the following two-line orbital elements,

1 31793U 07029B   14235.04840074 -.00000246  00000-0 -10381-3 0   477
2 31793 070.9785 030.7166 0002959 279.4533 218.5666 14.14284706369203
Epoch (UTC): 23 August 2014 01:09:41
Eccentricity: 0.0002959
inclination: 70.9785°
perigee height: 842 km
apogee height: 847 km
right ascension of ascending node: 30.7166°
argument of perigee: 279.4533°
revolutions per day: 14.14284706
mean anomaly at epoch: 218.5666°
orbit number at epoch: 36920

The dashed part of the orbit path shows where the satellite is in the earth's shadow,  

DLR